Satellite-Ground Cal/Val Site Overpasses Predictions

Prediction of Satellite NPP Overpassing Cal/Val Site: Antarctic Dome C

Ground Cal/Val Site Location: Latitude: -75.10, Longitude: 123.35; Satellite-Ground Site NADIR distance within 100 km.

Table of predicted overpasses for the next 14.0 days since TLE Epoch: 12/22/2012
Interval Starting Time Ending Time Minimum Distance Time Minimum Distance (km)
1 12/23/2012 14:40:19 12/23/2012 14:40:44 12/23/2012 14:40:31 51.24
2 12/24/2012 07:42:00 12/24/2012 07:42:21 12/24/2012 07:42:10 69.34
3 12/25/2012 07:23:06 12/25/2012 07:23:33 12/25/2012 07:23:20 38.66
4 12/27/2012 15:05:32 12/27/2012 15:05:40 12/27/2012 15:05:36 95.37
5 12/28/2012 14:46:31 12/28/2012 14:47:00 12/28/2012 14:46:46 15.90
6 12/30/2012 07:29:20 12/30/2012 07:29:49 12/30/2012 07:29:34 2.75
7 01/02/2013 14:52:44 01/02/2013 14:53:13 01/02/2013 14:52:58 20.32
8 01/03/2013 14:34:02 01/03/2013 14:34:16 01/03/2013 14:34:09 86.77
9 01/04/2013 07:35:34 01/04/2013 07:36:01 01/04/2013 07:35:47 33.47


<
